Regional Weather Roundup
Issued by NWS

Home | Current Version | Previous Version | Text Only | Print | Product List | Glossary On
Versions: 1 2 3 4 5 6 7 8 9 10 11 12 13 14 15 16 17 18 19 20 21 22 23 24 25 26 27 28 29 30 31 32 33 34 35 36 37 38 39 40 41 42 43 44 45 46 47 48 49 50
000
ASUS43 KTOP 260059
RWRKS

WEATHER ROUNDUP FOR KANSAS
NATIONAL WEATHER SERVICE GOODLAND KS
700 PM CST SUN JAN 25 2015

NOTE:  "FAIR" INDICATES FEW OR NO CLOUDS BELOW 12,000 FEET WITH NO
SIGNIFICANT WEATHER AND/OR OBSTRUCTIONS TO VISIBILITY.

KSZ001>006-013>018-027>032-041>047-260200-
NORTHWEST KANSAS

CITY           SKY/WX    TMP DP  RH WIND       PRES   REMARKS
GOODLAND       CLEAR     40  31  70 CALM      30.13R
HAYS           CLEAR     37  18  44 CALM      30.12R
HILL CITY      PTCLDY    33  20  58 CALM      30.11R
RUSSELL        CLEAR     34  24  67 E3        30.11R
$$

KSZ061>065-074>080-084>089-260200-
SOUTHWEST KANSAS

CITY           SKY/WX    TMP DP  RH WIND       PRES   REMARKS
DODGE CITY     CLEAR     40  18  41 N5        30.13R
ELKHART          N/A     50  29  44 NW2         N/A
GARDEN CITY    CLEAR     43  21  41 NE3       30.12R
GREAT BEND     CLEAR     37  21  52 N7        30.13R
LIBERAL        CLEAR     45  25  45 NW7       30.17R
$$

KSZ066>073-081>083-090>101-260200-
SOUTHEAST KANSAS

CITY           SKY/WX    TMP DP  RH WIND       PRES   REMARKS
CHANUTE        CLOUDY    41  31  67 N15       30.11R
COFFEYVILLE    CLOUDY    43  31  62 N16       30.11R
HUTCHINSON     CLEAR     41  27  57 N8        30.12R
MEDICINE LODGE   N/A     42  25  50 N7        30.12R
NEWTON         PTCLDY    37  25  60 N7        30.13R
PARSONS        CLOUDY    43  32  65 N12       30.11R
WICHITA INTL   PTCLDY    44  29  55 N8        30.12R
WICHITA JABRA  PTCLDY    37  29  72 N8        30.12R
WINFIELD       CLEAR     41  30  65 N7        30.13R
$$

KSZ007>012-019>026-033>040-048>060-102>105-260200-
NORTHEAST KANSAS

CITY           SKY/WX    TMP DP  RH WIND       PRES   REMARKS
CONCORDIA      PTCLDY    37  30  75 N5        30.11R
EMPORIA        MOCLDY    37  29  72 N10       30.11R WCI  30
LAWRENCE       CLOUDY    38  30  73 N10       30.11R WCI  31
MANHATTAN      CLOUDY    39  30  70 N3        30.12R
OLATHE IND     CLOUDY    37  30  75 N16G29    30.10R WCI  28
OLATHE EXE     CLOUDY    38  30  73 N16G23    30.08R WCI  29
SALINA         PTCLDY    38  29  70 N7        30.14R
TOPEKA BILLARD CLOUDY    40  30  67 N9        30.11R
TOPEKA FORBES  CLOUDY    41  30  65 N13       30.10R
$$


USA.gov is the U.S. government's official web portal to all federal, state and local government web resources and services.